COSMOS 2251 DEB, 38068

Orbit data source: Space-Track

COSMOS 2251 DEB, 38068 is space debris in LEO originally from a launch on Wed, 16 Jun 1993 UTC launched from the Plesetsk Missile And Space Complex (PKMTR). The debris from Iridium 33, an American commercial communications satellite, has been tracked extensively since its accidental collision with the defunct Russian satellite Cosmos 2251 in 2009. This event, occurring at high speed in low Earth orbit (LEO), generated thousands of pieces of space debris, significantly increasing the risk of further collisions. The Iridium 33 debris cloud has impacted space traffic management and orbital debris mitigation strategies, making it a subject of ongoing study in space situational awareness.

Loading next visibility...
Identifier
38068, 1993-036BSA
Orbit
LEO
Country
Flag of CISCIS
Related business
Manufacturer
Unknown
Mission
Spacecraft
Bus & Motor
Unknown
Mass
Unknown
Launch date (UTC)
1993-06-16 (33 years ago)
Launch vehicle
Unknown
Launch site
Plesetsk Missile And Space Complex (PKMTR)
Object type
Payload
Rocket body
Debris
Shape & HBR
Unknown shape, 0.1 m
Radar Cross Section
Small (<0.1 m²)

Expand to show TLE details & history
Last TLE update: 3 weeks ago

TLE from 3 weeks ago
0 COSMOS 2251 DEB
1 38068U 93036BSA 25330.00859101  .00000811  00000-0  28751-3 0  9999
2 38068  74.0219 338.9788 0024090  72.1007 288.2769 14.35960004664064
Epoch: 2025-11-26T00:12Z
TLE epoch observation values (Epoch: 2025-11-26T00:12:22.263Z)
Latitude
-0.00008°
Longitude
-89.30001°
Altitude
769.123 km
Speed
7.473 km/s
True Right ascension
22h 35m 54s
True Declination
0° 00' 00"
Sunlit
Object was in daylight at epoch
Visualization orbit readout
Latitude
Unknown
Longitude
Unknown
Altitude
Unknown
Speed
Unknown
Apparent Right ascension
Unknown
Apparent Declination
Unknown
Sunlit
N/A
Visualization observer readout
Local Sidereal Time
04:36:06
Azimuth
Unknown
Elevation
Unknown
Doppler factor
Unknown
Orbital elements
Apogee altitude
786.722 km
Perigee altitude
752.284 km
Semi-major axis
7,147.64 km
Eccentricity
0.00241
Inclination
74.0219°
RAAN
338.9788°
Arg. of periapsis
72.1007°
True anomaly
288.01453°
Mean anomaly
288.2769°
Eccentric anomaly
288.14574°
Mean motion
3.59169 °/min
Orbital period
100.23 mins
BSTAR
0.00028751

Documentation

Showing up to 5 results
|